Asheville, NC

10:20 PM EDT on October 18, 2019 (GMT -0400)
Asheville Regional

Weather History for KAVL - May, 2019

Change the Weather History Date:

Thursday, May 9, 2019

  Actual Average Record
Temperature  
Mean Temperature 69 °F 61 °F  
Max Temperature 76 °F 73 °F 90 °F (1889)
Min Temperature 62 °F 49 °F 34 °F (1984)
Degree Days  
Heating Degree Days 0 5  
Month to date heating degree days 1 48  
Since 1 July heating degree days 3528 4120  
Cooling Degree Days 4 1  
Month to date cooling degree days 26 8  
Year to date cooling degree days 43 16  
Growing Degree Days 18 (Base 50)    
Moisture  
Dew Point 57 °F    
Average Humidity 70    
Maximum Humidity 93    
Minimum Humidity 46    
Precipitation  
Precipitation T in 0.11 in 2.23 in (1995)
Month to date precipitation 1.38 1.02  
Year to date precipitation 25.17 15.61  
Snow  
Snow 0.00 in 0.00 in T in (1923)
Month to date snowfall 0.0 0.0  
Since 1 July snowfall 11.4 9.9  
Snow Depth 0.00 in    
Sea Level Pressure  
Sea Level Pressure 30.07 in    
Wind  
Wind Speed 8 mph (SSE)    
Max Wind Speed 15 mph    
Max Gust Speed 22 mph    
Visibility 10 miles    
Events      
T = Trace of Precipitation, MM = Missing Value Source: NWS Daily Summary

Daily Weather History Graph

Daily Weather History Graph

Search for Another Location

Airport or City:

Astronomy

May. 09, 2019 Rise Set
Actual Time 6:30 AM EDT 8:22 PM EDT
Civil Twilight 6:03 AM EDT 8:50 PM EDT
Nautical Twilight 5:29 AM EDT 9:24 PM EDT
Astronomical Twilight 4:53 AM EDT 10:00 PM EDT
Moon 10:28 AM EDT (5/9) 12:17 AM EDT (5/9)
Length of Visible Light 14h 47m
Length of Day
13h 51m
Waxing Crescent, 24% of the Moon is Illuminated
May 9
Waxing Crescent
May 11
First Quarter
May 18
Full
May 26
Last Quarter
Jun 3
New

Hourly Weather History & Observations

Time (EDT) Temp. Dew Point Humidity Pressure Visibility Wind Dir Wind Speed Gust Speed Precip Events Conditions
12:06 AM 64.9 °F 60.1 °F 84% 30.14 in 10.0 mi South 4.6 mph - N/A   Mostly Cloudy
12:19 AM 64.9 °F 60.1 °F 84% 30.14 in 10.0 mi SSE 3.5 mph - N/A   Scattered Clouds
12:54 AM 64.0 °F 60.1 °F 87% 30.08 in 10.0 mi SSE 3.5 mph - N/A   Scattered Clouds
1:54 AM 63.0 °F 60.1 °F 90% 30.08 in 10.0 mi SSE 4.6 mph - N/A   Partly Cloudy
2:26 AM 64.0 °F 60.1 °F 87% 30.16 in 10.0 mi SE 4.6 mph - N/A   Overcast
2:54 AM 64.0 °F 60.1 °F 87% 30.08 in 10.0 mi South 4.6 mph - N/A   Mostly Cloudy
3:54 AM 66.0 °F 59.0 °F 78% 30.08 in 10.0 mi SSE 6.9 mph - N/A   Overcast
4:54 AM 64.9 °F 57.9 °F 78% 30.08 in 10.0 mi South 6.9 mph - N/A   Mostly Cloudy
5:01 AM 64.9 °F 57.9 °F 78% 30.15 in 10.0 mi SSE 6.9 mph - N/A   Scattered Clouds
5:54 AM 64.0 °F 55.9 °F 75% 30.09 in 10.0 mi SSE 8.1 mph - N/A   Scattered Clouds
6:54 AM 63.0 °F 55.0 °F 75% 30.09 in 10.0 mi SE 5.8 mph - N/A   Clear
7:54 AM 64.9 °F 54.0 °F 68% 30.08 in 10.0 mi SSE 6.9 mph - N/A   Scattered Clouds
8:54 AM 66.9 °F 55.0 °F 66% 30.07 in 10.0 mi SSE 10.4 mph - N/A   Scattered Clouds
9:54 AM 68.0 °F 55.0 °F 63% 30.08 in 10.0 mi South 9.2 mph - N/A   Overcast
10:54 AM 69.1 °F 55.9 °F 63% 30.09 in 10.0 mi South 9.2 mph - N/A   Mostly Cloudy
11:54 AM 72.0 °F 54.0 °F 53% 30.09 in 10.0 mi South 10.4 mph - N/A   Partly Cloudy
12:54 PM 73.0 °F 52.0 °F 48% 30.08 in 10.0 mi SSE 11.5 mph 19.6 mph N/A   Clear
1:54 PM 73.0 °F 52.0 °F 48% 30.07 in 10.0 mi SSE 15.0 mph 19.6 mph N/A   Clear
2:54 PM 75.0 °F 54.0 °F 48% 30.05 in 10.0 mi South 10.4 mph 19.6 mph N/A   Scattered Clouds
3:54 PM 75.9 °F 55.0 °F 48% 30.03 in 10.0 mi South 12.7 mph - N/A   Partly Cloudy
4:54 PM 73.0 °F 54.0 °F 51% 30.02 in 10.0 mi South 10.4 mph - N/A   Clear
5:54 PM 72.0 °F 55.0 °F 55% 30.02 in 10.0 mi South 11.5 mph - N/A   Clear
6:54 PM 71.1 °F 55.9 °F 59% 30.03 in 10.0 mi South 9.2 mph - N/A   Mostly Cloudy
7:54 PM 70.0 °F 55.9 °F 61% 30.01 in 10.0 mi SSE 9.2 mph - N/A   Overcast
8:54 PM 69.1 °F 59.0 °F 70% 30.01 in 10.0 mi SSE 12.7 mph - N/A   Overcast
9:54 PM 69.1 °F 57.9 °F 68% 30.04 in 10.0 mi Calm Calm - 0.00 in   Overcast
10:54 PM 68.0 °F 57.9 °F 70% 30.05 in 10.0 mi South 3.5 mph - N/A   Overcast
11:54 PM 68.0 °F 57.9 °F 70% 30.04 in 10.0 mi SE 3.5 mph - N/A   Overcast